This demonstration page uses our WeatherBlox Daily Observations layout. Learn more.

Left ArrowRight Arrow

Hourly Observations for May 5, 2020

Temp ( °F °C ) Dew Point ( °F °C ) Humidity (%) Winds ( mph kmh ) Pressure ( in mb ) Visibility ( mi km ) Precip ( " mm )
12:40 am 00:40 Cloudy with Light Rain 50 10 47 8.3 89 89 SSW 3 6 30.02 1017 2 3 0.00 0.00
12:49 am 00:49 Cloudy with Light Rain 48 9 46 8 94 94 W 9 15 30.04 1017 3 5 0.01 0.25
12:52 am 00:52 Cloudy with Light Rain 49 9.4 47 8.3 93 93 W 9 15 30.02 1017 3 5 0.01 0.25
1:25 am 01:25 Cloudy with Light Rain 49 9.4 48 8.9 97 97 SE 7 11 30.00 1016 6 10 0.02 0.51
1:48 am 01:48 Cloudy with Mist and Fog 48 9 48 9 100 100 SE 5 7 30.01 1016 6 10 0.02 0.51
1:52 am 01:52 Cloudy with Mist and Fog 49 9.4 48 8.9 97 97 SE 7 11 29.98 1015 6 10 0.02 0.51
2:02 am 02:02 Mostly Cloudy with Mist and Fog 49 9.4 48 8.9 97 97 S 5 7 30.00 1016 6 10 0.00 0.00
2:14 am 02:14 Cloudy with Mist and Fog 49 9.4 48 8.9 97 97 S 3 6 29.99 1016 6 10 0.00 0.00
2:52 am 02:52 Mostly Clear 49 9.4 47 8.3 93 93 W 5 7 29.97 1015 8 13 0.00 0.00
3:52 am 03:52 Clear 49 9.4 46 7.8 90 90 WNW 10 17 29.96 1014 10 16 0.00 0.00
4:52 am 04:52 Clear 48 8.9 43 6.1 83 83 NW 10 17 29.96 1015 10 16 0.00 0.00
5:52 am 05:52 Mostly Clear 47 8.3 42 5.6 83 83 NW 13 20 29.96 1015 10 16 0.00 0.00
6:52 am 06:52 Mostly Sunny 48 8.9 42 5.6 80 80 WNW 14 22 29.97 1015 10 16 0.00 0.00
8:52 am 08:52 Partly Cloudy 53 11.7 44 6.7 72 72 WNW 23 37 29.97 1015 10 16 0.00 0.00
9:52 am 09:52 Partly Cloudy 56 13.3 45 7.2 67 67 WNW 22 35 29.97 1015 10 16 0.00 0.00
10:52 am 10:52 Partly Cloudy 57 13.9 43 6.1 60 60 NW 28 44 29.97 1015 10 16 0.00 0.00
11:52 am 11:52 Partly Cloudy 59 15 42 5.6 54 54 NW 33 54 29.97 1015 7 11 0.00 0.00
12:52 pm 12:52 Partly Cloudy with Blowing Dust 61 16.1 43 6.1 52 52 WNW 33 54 29.97 1015 5 8 0.00 0.00
1:52 pm 13:52 Mostly Cloudy with Blowing Dust 60 15.6 42 5.6 52 52 NW 30 48 29.99 1016 5 8 0.00 0.00
2:52 pm 14:52 Mostly Cloudy with Blowing Dust 61 16.1 42 5.6 50 50 NW 32 52 30.01 1016 6 10 0.00 0.00
3:52 pm 15:52 Mostly Cloudy with Blowing Dust 57 13.9 42 5.6 58 58 NNW 29 46 30.04 1017 6 10 0.00 0.00
4:52 pm 16:52 Partly Cloudy with Blowing Dust 58 14.4 43 6.1 58 58 NNW 26 43 30.06 1018 7 11 0.00 0.00
5:52 pm 17:52 Partly Cloudy 57 13.9 43 6.1 60 60 NNW 23 37 30.09 1019 10 16 0.00 0.00
6:52 pm 18:52 Partly Cloudy 57 13.9 41 5 55 55 N 23 37 30.09 1019 10 16 0.00 0.00
7:52 pm 19:52 Partly Cloudy 55 12.8 41 5 59 59 N 14 22 30.13 1020 10 16 0.00 0.00
8:52 pm 20:52 Partly Cloudy 52 11.1 42 5.6 69 69 N 8 13 30.14 1021 10 16 0.00 0.00
9:52 pm 21:52 Partly Cloudy 50 10 42 5.6 74 74 NNE 5 7 30.16 1021 10 16 0.00 0.00
10:52 pm 22:52 Clear 46 7.8 42 5.6 86 86 NW 6 9 30.19 1022 10 16 0.00 0.00
11:52 pm 23:52 Clear 47 8.3 42 5.6 83 83 Calm 30.18 1022 10 16 0.00 0.00

Powered by AerisWeather